Location: Sihaung
(22.8641°N, 94.0549°E)
Time: 02:51:50
(UTC+00:00)

Cosmos 2315 Rocket - Pass Details

Date: 03 March 2021
Orbit: 967 x 1001 km, 82.9° (Epoch: 12 April)

Event Time Altitude Azimuth Distance (km) Brightness Sun altitude
Rises 22:35:57 0° 196° (SSW) 3,665 6.8 -20.8°
Reaches altitude 10° 22:38:32 10° 201° (SSW) 2,715 6.1 -20.2°
Maximum altitude 22:44:33 52° 276° (W) 1,185 4.0 -18.8°
Drops below altitude 10° 22:50:35 10° 352° (N) 2,708 6.2 -17.4°
Sets 22:53:09 0° 358° (N) 3,655 7.0 -16.9°
